Theta_e
339 337 339 344 344 347 347 347 348 347 347 346 346 346 345 345 346 347 347 345 347 347 348 347 348 349 348 347 345 342 342 341 341 341 340 340 341 341 341 341 339 338 338 338 339 341 342 343 342 342 342 341 342 341 341 339 338 337 336 337 337 336 336 338 337 338 339 339 340 340 338 338 338 337 336 335 334 332 334 334 332 329 328 331 335
339 339 340 342 346 347 347 347 347 347 346 346 345 344 343 343 343 345 346 346 345 346 346 348 346 347 347 347 346 344 342 342 341 341 340 341 341 341 340 340 340 341 341 340 339 339 340 340 342 342 342 341 341 341 341 339 337 336 335 335 335 335 336 337 337 337 338 338 339 339 339 337 337 337 337 336 334 333 334 332 333 329 326 332 332
342 343 343 343 346 347 347 347 347 347 346 346 345 343 342 342 342 342 345 346 346 345 346 346 347 347 346 346 346 345 343 342 341 340 339 341 340 338 338 338 338 338 338 338 338 338 338 339 340 341 341 340 340 341 341 338 337 336 335 334 334 334 336 337 337 338 339 339 338 337 335 338 336 336 336 336 335 333 333 331 331 333 329 333 331
342 343 343 344 346 347 347 347 346 346 345 344 343 342 342 341 340 341 341 347 346 346 346 346 346 346 346 346 346 345 343 341 340 339 337 335 336 337 339 337 338 337 338 338 338 338 338 339 339 339 339 339 340 340 339 339 336 335 335 334 333 334 336 337 338 338 338 338 337 334 330 325 329 335 336 335 335 334 334 331 331 331 333 333 334
342 343 344 343 342 345 347 346 346 345 344 343 342 342 342 341 341 340 340 342 344 343 344 344 344 344 345 347 345 343 341 339 338 338 338 338 339 338 339 339 339 339 339 339 339 338 338 338 338 338 338 338 338 338 337 336 336 336 335 334 334 335 337 338 338 338 338 337 336 331 326 328 328 337 336 336 335 335 335 332 332 331 332 334 336
343 344 344 342 340 341 346 346 346 345 344 342 343 342 340 338 339 339 339 339 341 343 342 342 341 342 342 344 346 344 341 339 339 339 337 337 336 337 339 339 338 336 336 338 338 338 338 338 338 337 337 338 338 338 337 337 336 336 335 335 336 336 337 337 337 337 336 335 334 328 327 328 330 330 337 336 335 336 335 333 333 333 335 336 337
343 344 343 343 340 341 345 346 345 344 343 342 342 341 340 340 340 340 339 339 340 341 341 342 342 343 343 343 343 342 342 340 340 340 339 339 341 341 341 341 340 339 339 338 338 337 337 338 338 337 338 338 338 338 338 337 337 336 335 335 336 336 335 334 334 334 334 330 329 329 329 329 330 331 337 337 336 336 336 335 334 333 334 335 335
344 344 344 342 340 343 345 347 345 344 342 342 342 340 340 340 340 340 340 341 342 342 342 341 342 343 342 341 340 340 340 341 342 343 342 343 341 338 337 337 338 338 338 338 338 339 338 338 337 337 337 339 338 337 336 335 335 335 336 336 334 333 333 333 332 332 332 325 327 328 332 331 330 332 338 339 338 338 338 337 336 334 334 335 336
342 343 343 341 340 343 344 346 345 344 343 343 342 341 341 341 341 341 341 341 341 341 341 341 342 342 341 339 340 341 342 344 345 345 342 340 339 337 337 336 336 337 337 336 338 338 338 337 336 337 338 338 337 336 335 334 335 335 334 332 332 331 331 331 330 328 323 324 324 325 329 332 329 330 337 339 339 338 338 338 338 338 337 338 337
342 343 341 339 340 342 344 345 346 344 343 343 342 342 342 343 343 342 341 341 340 340 341 342 342 341 340 339 342 342 343 344 344 344 342 340 339 338 339 338 337 337 336 336 336 337 336 337 337 337 337 337 337 336 335 335 335 335 333 332 332 331 330 329 326 325 317 319 321 322 327 335 329 329 336 339 339 338 337 337 338 338 337 337 337
341 342 340 339 340 342 345 346 346 345 343 342 343 343 342 342 341 341 341 340 340 340 340 340 340 339 339 339 342 341 341 342 343 343 343 341 340 338 337 336 337 338 338 338 337 337 337 337 336 336 336 337 336 336 336 336 334 334 333 332 332 331 330 328 323 314 315 315 318 320 324 332 327 330 338 339 340 338 338 339 337 336 337 336 337
340 341 340 339 344 341 345 345 345 345 344 343 343 342 342 341 338 337 339 339 339 340 340 339 340 340 341 340 340 341 341 342 343 343 343 342 341 341 341 340 338 335 334 335 336 336 336 336 336 336 336 337 336 336 336 335 334 333 332 332 331 330 329 327 319 316 315 315 318 322 320 324 325 332 339 339 339 338 336 337 336 336 337 337 337
340 341 341 339 339 340 343 344 344 345 345 343 342 341 341 339 337 336 336 337 337 339 339 340 341 341 341 340 339 341 341 342 341 342 342 341 341 340 337 336 336 336 338 338 337 336 336 336 336 336 336 336 336 335 335 334 334 334 334 332 331 330 328 326 316 316 317 315 319 319 319 323 327 335 338 339 338 338 337 336 337 336 336 337 337
339 340 341 340 339 344 340 342 343 344 345 344 342 341 339 338 337 336 336 337 337 339 341 341 341 340 339 339 340 340 341 341 341 341 341 341 340 339 339 339 339 338 337 335 336 335 335 335 336 336 335 335 334 334 334 334 333 333 333 333 330 328 325 323 323 314 316 317 318 320 319 324 329 339 337 338 338 338 337 336 336 336 336 336 336
338 340 341 341 340 339 341 339 340 341 342 343 342 341 339 338 336 336 337 337 338 340 341 341 340 339 338 338 340 341 341 340 340 340 340 340 339 338 338 338 338 337 337 336 335 335 335 335 335 335 334 333 334 334 334 332 332 332 332 331 328 327 324 315 316 313 316 319 317 319 319 321 336 337 338 337 336 336 337 337 337 337 337 337 337
339 340 341 341 340 338 338 341 336 336 339 340 340 340 340 339 341 340 341 342 342 341 340 339 339 337 336 336 336 336 338 340 340 340 339 339 338 338 337 337 336 336 335 336 335 334 335 335 335 334 333 333 333 333 333 332 332 332 331 330 328 326 324 320 313 313 314 317 317 318 320 322 337 337 338 337 336 335 338 337 336 336 336 337 337
339 341 341 341 340 337 335 338 335 333 333 335 337 338 340 342 343 343 342 341 341 340 339 338 337 335 336 337 340 338 338 338 339 339 338 338 338 337 336 335 335 335 335 335 335 335 334 334 334 333 333 333 332 331 331 332 331 331 329 328 327 326 324 320 315 312 313 318 318 319 320 324 334 336 336 337 336 337 336 337 336 336 336 336 336
338 340 339 340 340 337 336 334 333 333 332 332 334 337 339 341 340 340 341 340 340 340 339 339 339 340 339 338 338 338 339 338 338 338 338 338 339 338 336 335 335 334 334 335 334 334 334 333 333 333 333 332 332 331 332 333 333 332 330 327 326 325 323 321 312 312 315 322 317 320 321 333 335 336 335 335 336 337 336 336 336 335 336 336 335
337 338 338 340 339 336 335 333 331 331 330 331 333 335 335 337 338 338 339 339 339 338 338 337 337 336 334 333 333 332 331 330 332 334 335 335 334 334 337 336 334 334 334 334 333 333 333 333 332 333 333 333 335 333 334 335 333 331 329 326 324 322 321 317 311 311 313 318 320 320 323 335 336 336 335 334 336 336 335 335 336 335 335 335 333
336 336 337 339 338 336 334 331 330 330 330 331 332 333 333 332 334 335 335 336 336 336 334 332 331 328 328 328 327 326 326 325 325 325 328 329 330 328 333 335 334 333 333 332 333 332 332 332 332 332 333 335 330 328 327 331 331 330 326 324 321 319 312 311 310 312 314 317 321 319 330 335 335 336 335 335 335 335 334 334 335 335 335 333 331
334 335 336 338 337 335 334 331 330 329 330 331 331 331 332 331 331 331 332 332 333 333 330 325 324 324 323 323 324 324 324 324 325 323 322 323 323 324 331 334 333 333 332 331 331 332 332 332 331 332 333 332 325 320 320 325 328 327 324 320 318 313 310 310 310 313 314 315 318 320 332 335 334 334 335 335 335 333 332 332 333 334 333 332 330
330 332 335 337 336 335 334 332 330 329 329 330 331 330 331 331 329 329 330 330 328 327 327 327 327 323 320 322 323 324 324 324 325 326 325 325 324 321 324 330 331 330 331 333 332 332 332 331 332 332 334 327 321 313 312 317 321 323 320 316 311 309 308 308 310 312 314 316 317 323 333 333 334 332 331 331 333 332 330 331 332 332 331 330 329
329 331 333 336 336 335 335 332 330 328 329 331 332 332 331 330 328 327 327 327 328 326 327 326 324 322 321 321 321 322 323 324 324 325 324 320 322 320 323 325 326 325 325 327 329 329 332 332 331 331 328 322 315 313 313 310 309 316 314 311 309 309 308 308 310 312 312 315 314 325 331 331 332 330 329 329 331 331 330 329 331 330 328 327 326
329 331 332 335 336 334 334 333 330 329 330 331 332 333 333 333 330 328 327 326 325 324 323 323 322 321 320 320 321 321 321 322 324 325 324 322 321 319 319 321 320 320 318 317 318 320 323 324 322 322 315 311 309 309 309 309 310 308 308 308 309 309 309 308 309 309 311 314 312 325 329 331 330 327 327 331 331 330 329 330 330 328 327 325 325
329 332 332 334 335 334 333 332 330 329 330 331 332 332 333 333 332 331 329 328 325 324 321 319 319 319 318 319 320 320 320 321 321 322 320 320 320 319 318 318 317 316 314 314 310 310 311 310 309 309 307 309 310 310 310 312 312 311 308 308 310 309 308 308 308 309 310 309 310 323 327 330 329 327 327 328 329 328 328 327 327 326 326 325 324
330 329 330 333 335 335 333 332 330 329 330 330 331 331 331 331 331 330 330 328 325 324 321 318 316 316 317 318 318 319 318 319 319 319 318 318 318 318 317 316 315 313 313 311 309 310 310 309 308 308 310 310 311 312 311 312 315 313 309 308 311 309 309 309 309 308 307 308 309 321 325 328 327 327 328 327 326 326 326 326 326 324 324 323 323
328 328 331 333 335 335 333 332 330 329 329 331 331 330 330 331 330 330 329 328 327 324 322 319 317 317 317 318 318 317 317 317 317 317 316 316 317 316 315 314 314 313 313 312 309 309 310 310 310 308 308 311 311 311 313 316 317 315 311 310 310 311 310 312 311 307 306 307 309 318 322 327 329 325 326 327 327 328 327 327 327 325 324 323 323
326 328 330 332 333 334 334 331 330 329 329 330 330 329 329 329 329 328 328 327 326 325 323 322 319 317 317 318 318 317 317 317 316 314 314 314 315 315 314 313 313 312 313 311 308 307 309 311 310 308 310 310 311 312 312 314 315 318 314 311 310 312 310 310 311 306 305 305 305 314 320 324 326 328 326 327 327 327 327 327 326 325 324 324 324
323 326 329 330 332 334 334 332 330 329 329 329 328 328 328 328 327 327 327 326 327 326 325 323 319 317 318 318 317 317 317 317 316 315 313 312 313 312 313 313 312 311 312 312 311 309 308 308 309 309 309 310 309 312 313 315 315 314 313 311 310 310 309 307 307 306 305 304 304 309 318 322 325 327 328 327 326 327 327 326 325 325 324 323 323
321 324 327 329 331 334 334 332 331 329 329 328 328 327 327 326 326 326 326 325 326 327 326 322 320 318 317 318 317 318 317 317 317 315 312 311 311 311 311 311 311 311 311 312 311 310 310 309 308 308 309 310 312 314 314 316 316 315 312 311 311 310 308 308 308 307 305 303 304 304 315 318 321 325 327 326 326 327 326 324 324 324 323 323 323
320 320 324 327 330 332 333 333 332 329 329 327 327 327 326 325 325 325 325 324 325 325 324 323 320 318 318 318 318 318 318 317 317 314 312 311 310 310 311 311 310 311 311 312 308 311 310 310 310 311 311 311 312 310 310 312 313 315 313 311 312 312 310 311 312 308 304 303 302 302 304 314 318 320 324 327 325 325 324 323 323 323 322 322 322
319 320 321 324 327 330 332 333 333 330 328 328 326 326 325 325 324 324 324 324 324 323 323 323 319 318 317 317 317 317 316 316 316 315 314 313 311 311 312 311 313 312 312 312 311 309 310 310 310 310 311 310 309 309 308 310 310 313 310 310 312 313 312 312 311 309 306 303 302 300 301 303 311 315 319 324 325 325 324 324 323 322 322 322 321
320 321 321 320 324 327 330 332 333 331 329 328 327 326 325 324 322 323 323 322 322 322 322 322 320 318 317 317 317 317 316 317 316 316 314 314 313 312 311 312 314 314 313 311 310 309 309 309 310 309 309 310 310 311 309 307 309 310 310 311 312 311 312 313 311 310 308 303 300 300 300 299 300 308 312 318 326 324 323 322 322 321 321 321 322
319 319 319 320 322 326 329 330 331 331 329 329 328 326 325 324 323 322 321 320 320 320 319 320 319 318 317 317 317 317 316 317 316 315 314 314 313 312 313 313 313 312 311 309 310 308 309 309 311 311 312 311 311 310 309 311 307 306 308 309 314 315 315 313 312 311 306 301 299 298 299 298 298 301 302 312 319 323 322 321 321 321 320 319 320
318 318 319 320 320 322 325 328 328 331 329 329 327 327 325 324 323 322 321 320 319 319 319 319 319 319 318 317 317 317 316 316 316 316 314 314 313 312 312 314 314 310 310 309 312 310 311 313 310 310 311 309 308 307 309 310 307 309 309 312 315 314 313 314 313 309 306 301 298 298 298 298 297 299 301 303 310 316 321 320 320 318 317 318 319
319 319 319 319 320 321 322 325 325 328 330 329 329 328 325 324 323 321 322 321 320 319 319 318 318 318 318 318 317 317 316 316 316 315 315 314 313 314 314 314 311 310 311 309 311 312 311 312 311 312 311 311 307 312 307 306 305 307 309 314 314 313 313 311 310 307 304 301 298 297 297 296 295 298 301 301 305 310 315 315 314 313 313 314 317
319 319 319 318 319 319 320 322 323 326 328 329 329 328 325 323 322 322 322 321 320 319 319 317 317 317 318 318 318 317 316 317 316 314 315 314 313 314 313 314 311 313 311 311 311 313 313 313 311 310 312 312 309 309 307 305 307 308 311 312 313 312 310 309 310 309 304 301 297 297 296 295 297 302 297 299 301 304 310 311 309 309 309 311 313
320 319 319 319 319 320 320 321 323 324 327 327 327 327 325 323 322 321 320 321 320 320 319 318 318 318 317 317 318 318 317 316 316 315 314 315 314 314 314 313 312 312 311 311 313 312 311 313 313 310 311 312 308 308 308 306 306 307 309 310 310 310 308 306 307 304 304 301 297 296 296 295 295 295 297 297 298 300 300 303 305 305 307 308 311
320 320 319 319 320 320 319 319 320 322 324 326 326 325 324 322 320 319 319 319 319 320 320 318 319 318 317 317 317 317 316 316 316 316 316 315 314 314 314 313 313 312 312 312 311 310 310 309 312 312 307 310 311 309 311 307 306 308 309 309 307 305 303 303 302 300 301 301 299 298 295 295 294 294 295 295 295 296 296 294 293 294 298 306 308
321 320 319 319 319 319 319 319 319 321 322 323 324 323 322 319 318 317 317 317 318 318 318 319 319 319 319 318 318 317 317 316 317 317 316 316 315 314 314 313 313 313 312 311 311 311 312 310 309 311 309 307 305 306 305 306 305 307 306 308 306 304 303 301 299 299 298 297 298 297 296 293 293 293 293 291 294 294 295 293 292 290 291 299 304
320 320 319 319 319 319 319 319 319 320 320 321 321 321 320 319 318 318 318 318 318 318 318 319 319 319 319 319 318 317 317 316 316 317 317 316 316 315 315 314 314 313 313 313 314 313 313 313 312 309 311 307 309 307 304 305 307 307 304 302 306 306 303 301 299 298 297 295 294 295 294 293 292 293 292 290 291 292 292 291 289 287 287 286 292
320 320 319 319 319 320 319 320 320 319 320 321 321 321 321 321 320 319 319 319 318 317 318 319 319 319 319 319 318 318 318 317 316 317 317 317 316 316 315 316 315 314 314 314 313 311 311 310 309 308 310 311 311 310 310 311 305 304 305 302 302 303 302 300 299 298 297 296 295 296 294 293 292 291 290 290 289 290 290 290 288 288 286 286 287
321 321 320 320 319 319 320 320 320 320 320 321 321 320 321 321 321 320 320 319 320 320 320 320 320 319 319 319 319 319 318 318 317 316 317 317 317 316 316 316 315 314 313 312 312 311 312 312 311 313 310 309 310 308 310 312 308 300 302 306 303 305 306 304 300 298 298 296 293 293 292 292 292 290 290 290 290 290 290 288 287 286 285 285 286
320 321 320 320 320 319 320 320 320 320 321 321 319 321 321 321 321 321 321 321 319 319 319 317 318 318 318 318 318 319 319 319 318 317 317 317 317 317 317 316 316 315 315 314 313 313 312 312 311 311 312 311 310 312 310 311 306 309 305 308 304 303 301 301 301 298 295 295 294 293 292 293 290 289 289 291 290 290 289 288 286 286 285 285 286
320 321 321 321 321 320 320 320 320 320 321 320 320 320 319 318 318 314 315 314 314 313 314 316 317 317 317 317 317 318 319 319 319 318 316 317 317 318 317 317 317 316 316 315 315 314 314 313 313 312 312 314 310 310 311 311 309 313 310 301 301 301 301 298 296 297 293 293 291 290 290 290 290 290 290 288 287 289 289 287 286 285 285 285 285
318 320 322 323 322 322 321 321 321 321 321 321 320 320 319 319 317 317 315 315 316 315 315 316 316 316 317 319 318 317 318 319 319 319 318 316 317 318 318 318 318 317 316 317 317 314 313 313 313 314 313 313 315 312 311 308 311 310 309 306 310 306 299 297 301 297 293 291 288 288 288 289 288 289 288 289 289 288 288 288 285 285 285 284 285
317 320 321 322 323 323 322 321 321 321 321 321 321 319 319 319 319 318 318 318 317 318 319 319 319 319 319 318 319 317 318 318 318 319 320 318 318 318 319 319 319 319 315 316 316 315 316 315 314 314 315 314 312 313 312 312 309 310 309 306 302 298 304 303 302 294 296 293 292 288 288 288 288 289 290 289 288 289 288 287 286 285 285 285 285
316 318 320 321 322 322 322 322 321 320 322 322 321 320 320 319 319 318 318 319 318 319 318 319 319 318 318 318 318 318 317 318 318 319 320 320 319 319 319 319 319 319 317 317 317 317 317 315 314 315 315 314 314 315 313 312 311 311 310 309 306 299 299 300 302 305 301 295 296 291 288 287 287 289 290 289 288 289 288 286 286 285 284 284 284
314 316 318 320 321 322 322 322 322 321 321 321 320 320 320 320 319 319 318 318 320 319 318 317 318 316 317 317 317 318 318 318 318 318 319 320 318 318 319 319 319 319 316 318 318 318 317 316 313 313 314 314 315 315 314 313 313 313 308 309 308 306 302 299 297 298 299 298 296 292 290 287 287 287 287 288 287 288 289 287 286 285 286 285 285
313 315 317 319 320 321 321 321 322 322 322 321 320 320 320 319 319 319 319 319 318 318 315 316 315 315 316 317 317 317 318 317 317 318 318 318 319 318 318 319 319 319 316 318 318 318 317 317 316 315 315 314 314 314 315 314 313 314 313 313 309 307 305 302 299 298 296 297 301 294 291 288 287 287 287 288 287 287 288 287 286 285 285 285 284
310 313 315 317 319 319 320 321 322 323 322 321 320 320 320 320 320 320 319 319 319 318 317 317 315 314 315 316 316 316 316 317 317 317 318 318 318 318 318 319 319 318 316 318 318 318 318 317 317 316 315 315 314 314 313 314 314 313 313 314 312 310 308 306 305 301 303 298 294 293 289 289 291 288 287 287 287 287 288 287 285 284 284 284 284
Wind_Speed
3 3 3 6 5 7 6 8 9 10 11 11 12 10 9 9 9 10 11 8 12 9 13 14 15 15 16 16 17 15 14 13 14 14 14 14 14 14 15 15 15 13 12 12 12 13 13 14 14 14 14 14 15 15 16 17 17 17 16 15 15 15 15 17 18 17 16 16 18 16 16 16 16 15 17 16 14 14 11 14 12 6 6 10 15
7 3 4 5 8 9 7 8 9 11 11 12 12 10 8 8 8 9 11 10 5 11 11 14 13 15 16 16 16 15 14 14 13 14 15 14 14 14 14 14 14 14 14 14 13 13 13 13 14 14 14 14 14 15 15 17 16 16 16 15 15 15 15 17 17 16 15 15 15 15 14 16 15 17 16 16 15 13 9 13 12 4 4 13 14
5 4 4 4 9 8 7 9 9 9 10 11 12 11 9 8 7 8 10 9 8 10 13 13 13 13 14 15 14 15 15 13 13 13 14 14 15 14 14 14 13 14 14 13 13 13 12 13 13 13 14 14 14 14 15 16 15 15 15 15 14 14 15 16 16 15 14 14 14 13 12 12 14 15 16 15 14 15 12 11 11 8 7 13 11
6 4 3 5 7 7 9 8 9 9 10 11 11 11 10 9 7 6 7 10 8 12 12 13 13 13 13 14 14 15 15 13 13 13 13 13 13 13 14 13 13 14 14 14 13 13 13 13 13 13 13 14 14 15 15 15 15 14 14 14 14 13 14 16 15 14 13 13 12 10 5 6 7 13 14 15 15 14 11 12 13 12 12 13 13
7 5 4 4 3 5 9 8 9 10 10 9 9 10 10 8 8 7 6 7 8 10 11 11 11 11 13 14 15 15 14 13 13 13 13 14 14 14 13 14 14 15 14 14 14 14 13 13 13 13 14 14 14 15 14 13 13 14 14 14 14 13 14 14 14 13 12 12 11 8 5 6 5 8 14 14 13 11 10 10 11 12 12 14 13
7 5 4 4 3 3 8 9 10 11 10 9 10 10 10 7 9 8 7 6 9 12 11 11 11 10 11 12 14 14 14 13 13 13 13 13 13 13 13 13 13 13 13 14 13 13 13 13 13 14 14 13 14 14 14 13 13 13 13 13 13 13 13 12 12 12 12 11 10 6 6 6 5 6 11 12 13 11 12 12 12 12 12 13 13
10 5 5 4 3 3 6 9 10 11 10 9 9 10 9 9 9 8 7 7 8 10 10 10 11 11 11 11 11 11 11 12 12 13 13 14 14 14 13 14 14 14 14 13 13 13 13 13 13 13 13 13 13 14 14 14 13 12 12 13 12 12 12 11 12 12 11 7 5 5 5 6 6 5 9 11 11 11 12 11 11 11 11 11 11
6 5 5 5 4 4 6 8 9 10 10 9 10 9 9 8 8 8 7 6 9 11 11 11 12 12 11 10 10 10 9 10 12 13 13 13 13 12 12 12 12 12 12 12 12 13 13 13 13 12 13 13 14 13 13 12 12 12 12 12 12 12 11 11 10 10 10 4 4 5 5 5 5 4 8 11 11 11 11 10 10 10 10 11 8
9 6 6 5 4 8 7 7 9 10 10 10 10 10 9 9 8 8 8 8 9 10 10 10 10 11 11 11 10 10 9 11 12 12 12 13 12 12 12 11 12 12 12 12 12 12 12 12 12 12 12 13 13 13 13 12 12 12 13 12 12 11 11 10 10 9 6 4 5 5 5 5 5 4 6 10 11 11 11 8 8 9 8 10 12
8 6 6 5 5 9 9 9 9 9 10 10 9 9 10 9 9 9 8 9 8 8 10 11 10 11 10 11 11 9 11 11 12 12 11 13 12 12 12 12 11 11 11 11 11 11 11 11 12 12 12 13 12 12 12 12 12 12 11 11 11 10 10 9 9 7 4 4 5 5 5 7 4 4 5 10 11 11 7 4 6 6 6 10 14
9 6 5 6 6 10 11 10 10 10 11 10 9 9 10 9 10 11 10 9 9 10 10 10 9 9 10 10 10 9 9 11 11 12 11 11 12 12 11 10 11 11 11 11 10 10 10 11 11 12 13 12 12 12 13 13 12 11 11 10 10 9 9 8 7 4 4 4 5 5 6 8 4 3 8 9 11 8 4 4 6 8 10 12 12
10 6 5 4 10 11 11 10 10 11 11 11 10 9 9 8 7 8 10 9 11 10 9 9 10 10 10 9 9 10 10 9 10 10 11 11 12 12 12 11 9 9 10 10 10 10 10 10 10 11 12 12 12 12 12 12 11 10 10 9 9 8 9 9 5 5 4 4 5 5 5 6 5 3 10 9 9 10 9 10 10 10 12 12 12
8 6 5 4 4 9 10 11 10 10 10 12 11 10 9 7 7 7 7 9 9 9 9 9 9 10 11 9 8 9 9 9 9 10 10 10 11 11 10 9 9 9 10 10 9 9 9 10 11 12 12 12 12 12 12 12 11 9 8 7 8 9 8 8 4 5 4 4 4 5 5 5 6 6 10 10 10 11 11 11 11 11 11 11 12
9 7 5 4 4 9 9 10 9 10 11 10 11 11 10 8 7 7 8 7 8 9 8 9 9 9 9 9 8 7 7 9 8 9 9 10 10 10 10 9 9 9 9 9 8 8 9 10 11 12 11 11 11 11 12 13 12 10 8 8 8 8 7 6 5 4 4 4 4 4 4 5 6 11 8 10 11 11 10 11 12 12 11 11 12
10 9 6 5 4 4 8 9 9 9 11 10 10 11 11 9 8 7 8 8 8 8 9 9 8 7 7 8 9 8 7 7 8 8 8 8 9 9 9 9 9 8 8 7 7 7 8 9 11 11 11 10 10 10 12 12 11 11 9 8 7 6 6 4 3 3 4 4 4 4 5 4 9 10 8 10 10 10 12 11 12 12 12 13 13
6 8 6 5 4 4 4 7 9 8 8 10 10 9 10 9 6 6 8 8 9 8 7 8 8 7 7 7 6 6 8 8 8 8 7 7 8 8 8 7 7 6 6 6 6 6 7 9 10 10 10 10 9 10 10 11 10 10 9 7 5 5 5 4 3 3 4 5 4 4 5 5 10 7 9 9 9 10 11 11 12 12 13 15 15
7 6 7 6 5 4 4 5 5 8 8 9 9 9 9 10 8 8 8 8 9 10 8 8 8 6 6 7 7 9 7 7 7 8 7 7 7 7 6 6 6 6 5 5 5 5 7 9 9 9 9 9 9 9 9 10 10 9 9 7 5 5 5 4 3 3 4 3 3 4 5 4 6 7 8 12 11 11 10 12 12 12 14 14 16
6 7 8 6 5 4 4 4 5 5 4 6 8 9 10 11 9 8 8 9 8 9 8 7 7 8 10 10 10 10 10 8 7 6 6 4 5 5 6 6 6 6 5 5 4 5 7 7 8 8 8 8 8 8 8 8 8 7 6 6 5 5 5 4 3 3 3 4 4 4 4 6 6 7 10 10 11 10 10 13 12 12 13 15 18
6 6 6 5 5 5 4 4 4 4 5 4 4 8 11 10 11 10 9 9 8 7 8 10 10 10 10 10 9 9 9 9 8 8 7 7 7 8 7 5 6 6 4 3 3 4 5 6 6 6 7 8 8 7 7 7 8 7 6 5 5 5 6 4 3 3 3 5 4 5 6 7 7 10 10 10 11 10 13 12 11 13 14 16 18
6 7 7 5 5 5 4 4 4 4 4 4 5 5 9 11 11 11 9 7 9 9 10 10 10 9 9 9 9 6 6 6 8 6 9 9 8 6 7 6 5 4 3 3 3 4 4 4 5 5 6 7 7 7 7 6 7 6 6 6 6 5 3 3 3 3 3 4 4 5 8 8 8 9 10 10 10 11 12 12 13 13 15 17 17
4 6 6 6 5 6 5 5 4 4 4 5 5 5 7 10 9 10 11 10 10 10 11 11 10 8 7 7 6 4 3 3 4 4 6 5 7 7 6 5 4 3 2 2 3 3 3 3 4 5 6 6 7 6 6 6 7 6 6 6 6 4 3 3 3 3 3 4 4 5 10 6 8 8 11 10 9 11 12 12 12 13 16 16 16
6 6 6 6 5 6 6 6 4 4 4 5 4 4 5 7 5 5 6 8 9 9 8 7 7 5 6 4 3 3 2 2 3 3 3 3 5 7 6 7 7 7 6 4 3 2 2 2 3 4 5 6 6 3 3 4 5 6 6 6 4 2 2 2 3 3 4 4 4 6 11 7 7 8 7 7 10 9 9 11 12 14 15 15 15
7 7 7 9 6 5 6 6 5 4 5 4 4 4 5 4 4 4 5 7 7 7 6 7 5 5 4 4 3 2 2 2 2 2 2 4 4 5 6 5 5 4 4 5 5 5 5 5 5 5 4 5 2 2 3 3 2 4 4 4 3 3 2 2 3 3 3 3 3 7 9 8 7 8 6 8 8 10 10 10 12 14 14 14 14
7 7 6 6 6 5 7 6 5 5 5 5 5 5 5 4 4 4 4 5 5 6 5 7 6 6 5 4 3 3 3 2 3 4 3 1 1 3 4 4 2 2 3 3 4 4 4 4 4 4 3 2 2 2 2 2 2 2 2 3 3 3 3 1 3 3 3 3 3 8 9 8 6 6 5 9 9 11 10 11 12 13 13 12 12
6 5 5 7 7 7 6 7 6 5 6 6 6 6 5 4 4 4 4 5 5 5 6 6 6 6 6 5 5 4 3 2 2 2 1 2 1 1 1 1 1 1 1 1 1 2 2 2 2 2 2 2 3 1 1 2 2 2 2 1 4 3 3 2 3 3 4 3 3 7 8 8 6 6 6 8 9 8 9 10 11 12 12 12 12
4 7 9 8 7 7 7 7 6 6 6 7 6 6 7 6 5 5 5 4 5 5 5 6 6 6 6 6 5 5 4 3 3 3 3 3 3 2 2 2 2 2 1 1 1 1 1 1 2 2 3 2 2 2 1 1 2 1 2 1 4 2 1 3 3 3 3 4 3 6 6 8 6 5 6 7 7 9 8 10 11 11 11 11 11
7 7 6 6 6 7 7 7 7 6 7 6 5 6 6 6 6 6 6 5 4 5 5 5 6 6 7 6 6 5 4 4 4 4 4 3 4 3 3 2 2 2 2 2 1 1 1 2 2 2 2 3 2 2 3 3 3 1 2 2 2 3 1 2 3 3 2 3 3 6 6 6 7 3 6 6 7 9 9 10 11 11 10 10 11
6 7 7 7 7 8 8 8 7 7 6 7 6 6 5 6 7 7 7 8 6 5 6 5 5 6 7 7 6 5 6 5 5 5 5 4 5 4 3 3 3 2 2 1 1 1 1 1 2 2 3 3 3 3 3 3 3 1 2 3 3 4 4 2 4 2 2 2 2 4 6 6 7 7 4 5 7 8 8 9 9 9 10 9 10
8 8 7 7 8 8 9 9 8 9 7 7 7 7 6 7 6 7 7 7 8 7 6 6 6 6 6 7 7 6 5 5 5 5 4 4 4 4 3 4 3 3 2 3 2 2 2 1 1 2 2 3 3 3 3 3 2 1 3 3 2 3 3 2 4 3 2 2 2 3 5 6 7 10 7 6 6 7 8 8 8 9 9 9 9
10 9 9 8 7 8 9 10 10 9 7 8 7 8 7 8 8 8 8 7 8 8 8 6 6 6 6 6 7 7 7 6 6 4 5 5 4 3 3 3 3 3 3 3 3 2 3 1 1 2 2 3 4 3 1 3 2 1 3 4 2 2 3 3 3 3 2 2 2 2 5 6 7 9 11 3 7 8 8 7 8 8 8 8 8
7 9 9 9 8 8 9 10 10 9 8 8 7 8 7 8 8 8 7 8 8 7 7 6 6 6 6 6 6 6 6 6 6 5 5 5 4 4 4 4 4 4 3 3 2 3 1 2 3 3 3 4 4 2 2 3 1 1 1 3 4 3 2 1 3 3 3 1 1 1 1 5 7 9 9 9 7 7 7 6 7 7 7 7 8
9 10 9 8 8 10 10 10 10 9 9 9 8 8 8 8 7 7 8 7 7 7 7 6 6 6 5 5 5 5 4 5 5 5 5 5 5 5 4 4 5 3 4 3 3 2 2 1 1 2 2 1 2 2 1 1 1 1 1 2 4 4 4 4 5 3 3 2 0 0 1 2 6 8 9 10 3 9 8 8 8 7 7 7 7
8 8 8 8 10 10 10 10 10 9 11 10 9 8 7 7 7 8 7 7 7 6 7 7 6 5 5 5 5 5 5 5 5 5 5 5 5 5 4 4 5 3 3 3 2 1 1 2 3 0 0 0 0 1 1 0 0 1 1 2 3 3 4 4 5 4 4 3 1 0 1 2 3 6 9 9 8 7 8 8 9 8 8 8 8
8 6 7 10 9 7 8 8 9 10 11 10 9 8 8 7 7 6 6 6 6 7 7 6 6 5 5 5 5 6 6 6 6 5 5 5 5 5 5 5 5 4 3 2 3 3 3 2 4 1 3 1 3 3 3 3 1 1 1 3 4 4 4 3 3 4 4 3 2 1 1 2 3 4 4 9 9 9 11 9 8 9 9 9 9
6 7 11 11 9 9 8 7 10 11 11 10 10 9 8 8 7 7 6 6 6 6 6 6 6 6 5 6 7 7 7 7 6 6 6 5 5 5 5 5 4 3 3 3 4 3 3 5 3 3 3 2 3 3 3 3 2 3 2 3 4 3 2 3 3 2 2 3 2 1 1 3 3 5 5 4 8 12 9 8 8 9 10 10 9
11 10 9 8 10 9 9 9 10 12 11 12 11 10 9 8 7 7 7 7 7 7 6 6 5 5 6 6 6 6 6 5 5 5 5 5 5 5 5 4 4 3 4 3 3 5 5 5 3 3 4 5 3 5 1 3 3 3 2 3 3 4 4 3 3 2 2 3 2 1 1 2 3 3 4 5 6 8 12 10 11 12 12 10 10
11 10 10 9 9 10 10 11 12 13 12 12 12 10 8 8 8 8 8 8 8 7 6 5 6 6 6 7 6 6 6 5 5 4 5 5 5 5 5 5 4 5 5 5 5 4 5 4 4 4 4 5 5 5 3 2 3 3 3 3 3 5 5 4 4 4 3 3 3 1 1 2 2 4 4 6 6 6 10 13 13 13 12 11 10
9 11 10 12 12 10 10 11 10 11 11 11 11 10 9 9 8 8 7 8 8 7 6 6 7 7 7 7 7 7 6 6 6 5 6 6 6 6 6 6 5 5 5 5 5 4 4 5 5 5 5 4 5 5 5 3 1 2 3 2 2 1 0 0 1 4 5 4 3 3 2 1 3 3 4 4 5 6 6 9 11 10 10 9 10
9 11 10 10 8 8 8 10 10 10 10 10 10 9 9 7 6 6 6 7 6 6 6 6 7 7 7 7 7 7 7 6 7 6 7 7 6 6 6 5 5 5 5 5 5 4 4 4 5 5 2 4 5 5 5 3 2 0 0 0 0 0 2 2 2 1 0 1 2 2 1 1 2 2 3 4 4 5 5 5 5 4 5 10 10
9 9 11 10 10 9 8 8 9 9 8 8 8 8 7 8 8 5 6 7 6 6 7 8 7 7 8 8 8 7 7 7 7 8 8 7 7 6 6 5 5 5 6 6 6 6 7 5 5 6 5 4 2 2 2 4 2 2 1 1 2 1 1 2 2 1 0 0 0 1 2 1 2 1 3 3 5 4 5 4 4 5 4 6 9
8 9 11 12 13 13 11 12 10 9 9 9 8 9 9 7 7 9 10 8 9 9 9 8 8 8 9 9 8 7 7 7 8 8 8 8 7 6 7 6 6 7 7 8 8 7 7 6 5 5 6 4 3 1 2 3 3 0 2 1 1 2 2 2 2 1 1 1 1 1 1 3 2 2 2 3 4 4 4 4 4 4 4 3 5
11 12 13 14 13 12 13 12 9 10 11 11 10 10 10 10 10 10 9 9 8 9 10 8 9 9 9 8 8 7 8 8 8 8 9 9 8 8 8 8 7 7 7 7 6 6 6 5 4 3 2 5 4 4 4 5 0 3 1 2 1 1 1 2 2 1 1 1 2 2 2 3 4 3 2 4 3 4 4 4 4 4 3 3 3
14 14 14 12 12 13 13 11 11 12 12 12 11 11 9 9 9 7 10 8 8 9 9 9 9 10 9 8 8 8 8 8 9 9 9 9 9 8 8 7 7 7 6 6 6 6 6 7 7 7 3 1 2 2 5 6 4 2 2 1 2 1 1 1 0 3 4 3 3 2 2 2 3 2 3 4 4 4 3 3 4 3 3 3 2
11 9 10 13 12 12 12 13 13 13 12 13 13 11 11 10 9 8 7 8 6 6 6 4 5 7 8 8 9 8 9 10 9 9 8 8 9 9 8 7 8 7 8 8 7 7 6 6 6 6 5 4 3 4 5 7 5 6 2 4 1 0 5 3 4 2 1 4 4 3 2 3 2 3 3 5 4 4 4 3 4 3 3 2 1
12 12 12 13 11 15 15 15 13 13 12 12 13 10 8 6 6 3 1 3 2 2 4 7 7 7 7 8 9 9 9 9 8 9 9 9 8 8 8 8 8 7 7 8 8 9 8 7 7 7 7 7 5 3 3 5 6 6 6 3 1 1 4 2 1 4 1 2 3 4 3 3 3 4 5 4 3 4 5 3 3 3 3 2 1
13 14 13 15 15 14 14 13 12 12 13 13 13 11 10 10 9 9 9 8 9 8 10 11 9 10 11 7 6 8 8 9 9 9 9 8 9 9 9 9 9 8 8 9 7 5 6 7 8 8 8 7 8 5 4 4 8 8 5 3 5 4 3 2 1 4 1 1 0 2 4 4 3 4 3 4 5 4 3 5 3 4 3 2 1
15 12 12 14 15 13 12 13 13 12 12 12 13 12 12 11 14 14 13 13 13 11 9 8 9 9 7 8 8 7 9 10 9 9 9 10 9 9 9 9 9 8 7 7 7 8 8 9 7 8 9 8 6 7 9 7 3 5 5 4 2 2 4 5 5 2 3 1 1 2 2 3 4 5 5 4 5 5 4 4 4 4 3 2 1
14 11 13 13 13 15 14 15 13 13 12 12 13 14 14 13 13 13 12 13 13 13 10 10 8 7 8 10 8 8 9 10 10 9 10 10 9 9 9 9 9 9 8 9 10 9 7 7 9 10 8 8 10 11 9 6 8 6 7 7 5 2 3 3 4 7 5 3 3 0 0 1 3 4 5 5 6 7 7 5 4 4 4 3 1
11 12 14 14 14 14 14 13 13 13 11 13 14 14 14 14 14 12 12 12 12 10 7 7 9 7 9 7 8 8 8 9 10 10 10 10 9 10 9 10 10 9 8 9 9 9 11 9 9 9 10 9 9 9 6 8 8 8 6 6 6 6 4 2 1 1 5 5 4 4 3 1 1 3 5 4 4 5 6 6 5 5 5 4 4
11 12 12 11 12 12 13 14 15 13 13 14 14 15 15 12 13 13 16 13 10 8 6 7 7 6 10 9 8 8 8 8 9 10 10 10 10 10 11 12 11 10 9 11 10 10 10 10 11 11 10 10 8 8 10 8 8 7 8 7 7 5 4 2 1 2 1 2 7 5 7 7 5 6 5 6 6 5 5 5 5 5 5 6 5
8 9 11 11 10 11 12 14 16 13 13 15 15 16 15 14 14 15 16 15 12 10 9 9 7 7 10 9 9 8 8 9 8 9 11 10 11 11 11 11 10 10 10 10 11 10 10 10 9 9 9 11 8 9 9 8 7 8 8 8 9 9 9 8 8 6 7 6 5 6 4 7 6 3 4 4 6 5 6 6 7 7 7 7 6
Wind_Direction
212 164 158 156 178 154 139 125 114 107 107 103 98 95 85 69 73 91 93 99 102 93 103 98 91 90 86 85 88 86 85 86 91 91 85 82 80 81 82 81 81 85 85 85 82 86 81 76 73 70 68 68 69 73 77 75 70 68 67 69 71 69 69 53 48 43 37 39 39 46 66 60 64 63 66 58 55 58 52 54 59 49 55 60 57
161 161 157 170 165 146 148 130 112 107 108 105 99 97 89 79 73 84 100 101 67 97 97 94 91 88 89 88 89 93 89 87 85 85 86 86 85 84 82 79 80 79 77 77 82 84 83 79 73 70 69 70 72 76 80 78 75 70 68 70 73 76 64 53 48 43 40 40 39 35 38 64 60 63 64 64 65 62 53 55 60 62 79 63 57
133 138 156 162 155 155 144 128 117 112 108 102 99 95 94 87 77 70 101 103 114 99 94 91 87 88 92 97 102 97 95 92 92 93 93 90 86 85 86 85 78 77 78 81 83 83 82 78 75 71 71 73 75 79 83 80 78 74 72 73 72 68 54 53 49 44 40 35 35 28 18 15 54 62 64 65 66 60 55 59 65 75 62 65 67
139 141 144 149 150 150 139 129 123 115 106 105 104 101 97 94 84 90 80 114 108 91 86 85 88 88 91 99 104 101 98 97 96 92 90 92 94 90 85 87 88 84 83 86 84 82 81 80 77 74 75 77 78 82 84 85 82 79 76 74 71 63 55 53 51 47 40 35 31 29 15 13 350 58 62 64 61 67 70 60 60 57 52 53 58
147 142 140 136 145 147 136 135 131 118 113 110 110 110 102 101 108 102 98 107 108 96 89 88 85 85 97 103 105 105 103 104 103 101 96 93 90 89 88 87 85 84 84 84 85 85 84 81 79 79 78 78 80 84 85 87 89 86 80 76 72 63 56 52 50 44 39 30 26 28 15 6 6 0 69 62 58 64 81 54 56 62 53 43 38
151 143 135 124 133 146 140 143 134 127 122 120 113 107 104 97 96 95 106 108 108 101 97 90 93 97 102 103 104 107 109 108 108 106 103 97 93 89 87 87 87 91 90 88 91 90 85 83 82 82 82 82 81 77 78 84 90 89 83 78 75 68 58 49 44 40 34 25 19 12 14 13 1 343 58 64 61 50 50 56 50 50 45 43 33
151 140 137 132 130 144 150 146 137 132 128 125 115 113 112 116 113 110 113 125 124 108 108 111 108 106 106 106 109 109 112 111 113 110 106 103 98 96 96 94 94 92 91 96 93 91 92 88 84 82 83 82 81 80 82 89 91 90 87 80 77 71 61 51 43 37 33 28 1 11 8 2 4 348 45 63 60 57 52 50 49 50 38 31 26
142 139 138 139 138 150 164 146 140 136 133 131 124 118 117 112 107 110 109 95 109 112 114 115 114 111 111 113 120 116 115 115 114 114 111 109 105 98 88 85 85 86 92 91 91 88 85 84 82 83 83 83 80 82 82 84 85 87 85 82 79 73 65 58 48 44 36 22 17 3 357 359 359 2 39 60 61 57 51 45 45 43 36 26 12
150 139 140 143 144 147 163 145 144 142 139 131 128 128 122 119 116 117 120 116 118 120 118 113 112 113 113 113 112 110 109 116 116 110 114 107 101 96 95 93 92 91 91 96 95 92 87 85 85 83 81 80 80 81 82 80 83 86 87 84 80 76 70 61 52 42 30 14 5 8 358 358 359 358 23 61 65 58 53 46 35 28 14 29 26
150 143 149 149 155 153 149 150 145 147 139 138 134 130 125 123 126 127 124 122 123 125 116 117 123 122 116 111 109 105 105 107 110 107 106 109 105 102 101 101 99 97 98 99 99 96 94 91 87 84 83 77 77 78 79 79 83 85 84 81 78 75 71 64 53 43 31 12 5 3 351 5 354 342 40 63 69 67 52 64 59 37 29 42 29
153 154 155 154 159 151 152 149 151 150 147 144 135 131 130 132 142 136 131 132 132 126 130 127 121 118 119 115 112 109 105 106 111 114 109 109 106 103 101 97 93 95 93 94 94 93 95 92 89 86 83 78 73 73 76 78 81 83 83 80 73 70 65 62 54 34 29 19 6 2 343 359 3 323 45 57 67 68 63 54 53 49 37 34 34
158 157 159 160 158 154 151 151 156 158 157 144 141 136 137 146 141 136 137 141 137 132 138 121 117 113 108 112 110 107 99 94 103 111 112 110 109 105 103 102 101 98 99 92 88 92 91 90 89 82 77 76 74 72 72 74 78 82 84 76 74 69 60 51 48 32 28 20 11 358 347 346 348 339 45 49 62 63 57 48 41 39 38 34 34
157 158 155 168 158 162 151 155 160 161 158 148 145 142 142 148 141 145 143 144 143 133 127 127 119 117 115 112 108 99 102 101 100 105 111 111 109 107 103 99 93 91 90 88 83 83 85 86 83 76 73 70 68 68 71 71 70 72 76 81 71 61 55 50 35 26 16 17 10 358 350 339 338 8 48 47 52 54 48 44 42 42 42 39 44
158 160 158 161 165 165 157 157 159 157 157 153 149 146 149 152 157 157 159 143 137 135 130 121 120 115 111 108 100 101 103 107 108 111 116 112 107 105 100 98 93 88 86 85 82 79 77 80 77 72 68 65 64 66 69 67 61 56 57 61 58 54 47 41 32 21 7 12 1 355 350 343 328 23 40 57 53 51 48 48 48 46 45 48 51
162 164 159 161 170 162 165 160 159 159 157 155 147 150 151 153 161 171 147 140 143 135 129 117 118 116 115 110 108 108 104 111 111 113 111 110 109 106 105 101 98 92 88 87 81 73 71 72 68 65 62 61 59 60 63 63 58 53 50 57 65 60 57 50 31 16 10 5 357 350 346 335 351 35 36 55 54 53 52 53 54 48 51 58 59
164 163 153 164 163 164 162 168 163 160 152 146 149 152 150 153 149 148 133 129 124 129 131 119 124 142 130 125 118 120 115 112 114 109 103 110 114 109 108 105 102 101 95 87 75 70 66 65 61 58 56 56 58 57 58 62 55 49 49 56 67 65 53 53 31 18 9 5 353 348 339 334 349 41 54 61 57 57 64 61 57 53 57 63 67
166 162 161 167 159 161 165 161 166 160 149 149 151 154 148 135 131 129 130 133 137 136 144 135 134 133 127 87 72 89 100 113 113 121 124 122 118 115 114 111 108 101 98 96 86 71 63 60 59 54 50 49 52 49 43 49 49 42 45 52 70 71 58 47 30 16 5 1 1 344 336 331 9 54 62 58 54 54 61 63 60 57 64 71 73
171 162 168 171 166 156 160 155 153 153 145 142 149 144 137 136 135 126 134 141 150 143 140 129 108 84 78 77 68 61 55 50 65 77 95 88 90 111 121 125 123 116 102 90 81 72 61 61 57 53 47 46 42 36 29 27 42 40 44 56 79 84 66 53 31 5 8 2 354 341 341 334 39 57 60 58 58 64 68 67 65 64 67 73 71
167 172 177 182 169 151 157 151 150 147 139 138 145 144 141 138 135 136 140 153 151 134 115 103 101 94 88 86 82 72 68 52 50 54 60 71 70 64 70 83 101 95 94 98 95 77 69 66 59 52 45 42 30 21 14 14 27 42 45 60 73 76 67 49 26 9 13 6 355 350 332 357 56 58 64 65 65 69 66 65 70 69 70 74 73
172 185 185 192 163 156 158 150 149 151 144 145 147 149 145 143 143 141 137 133 126 116 108 103 101 99 98 98 98 91 72 64 53 48 47 53 53 63 81 91 100 94 103 107 90 77 72 64 58 44 39 45 28 18 13 15 35 43 50 70 84 70 47 35 22 16 13 9 1 346 337 8 59 63 64 62 64 65 68 66 66 74 75 72 71
186 194 188 192 170 162 164 150 156 152 146 148 148 150 153 146 147 143 137 134 128 118 110 107 102 101 105 101 93 92 87 82 58 52 47 47 46 37 53 75 82 75 83 86 70 63 60 49 42 33 30 35 28 21 17 15 37 51 58 76 81 67 44 38 22 13 19 11 359 340 342 17 47 68 71 64 67 68 68 71 70 74 72 69 70
195 196 199 200 170 170 169 157 152 154 147 145 146 148 153 146 147 145 139 137 129 123 122 125 120 112 102 99 85 88 78 73 83 77 63 60 42 42 42 59 64 44 23 11 34 31 24 37 32 28 36 33 26 26 6 1 37 54 68 79 80 80 38 41 52 24 20 4 356 334 352 29 44 58 63 70 63 69 75 73 72 72 72 68 70
203 199 192 204 179 176 171 158 160 158 147 147 148 148 150 144 145 143 138 137 138 135 136 129 132 130 125 116 98 91 99 108 108 121 103 61 53 42 44 55 51 35 1 342 338 347 353 9 24 18 26 24 39 48 2 332 24 39 61 76 93 86 56 33 62 43 29 346 336 343 1 14 46 51 67 67 71 75 77 77 74 75 73 73 74
203 197 189 196 183 179 176 163 164 164 155 157 152 155 155 151 148 147 143 143 144 140 144 137 147 147 143 140 136 140 140 134 165 171 132 127 58 34 29 21 36 23 343 327 317 330 340 342 3 11 28 32 47 39 350 327 16 45 44 80 103 109 83 45 67 51 28 357 338 351 6 14 57 64 73 82 84 84 83 81 77 74 77 79 79
194 182 190 191 186 177 176 167 167 170 167 163 162 165 159 150 158 158 157 154 145 152 144 144 154 157 152 151 152 152 156 155 173 179 151 173 197 221 245 234 241 238 292 273 323 323 351 354 343 4 15 22 5 35 24 339 340 82 28 78 118 114 105 89 65 49 22 1 349 3 15 14 64 79 81 84 84 85 87 87 83 79 82 82 80
174 192 199 197 190 180 177 171 173 178 175 171 172 166 162 166 160 166 168 167 156 159 158 156 157 164 162 153 152 158 164 170 186 194 192 196 203 212 220 223 222 224 209 236 279 334 328 328 325 340 346 15 344 306 241 218 267 95 107 71 114 90 97 98 74 43 25 13 351 7 23 13 40 72 78 99 114 103 102 97 91 87 86 82 78
189 196 188 194 191 179 176 169 181 177 179 173 177 172 177 172 168 170 173 174 167 166 174 171 171 169 165 162 155 164 164 171 188 196 205 200 206 206 214 217 220 218 217 218 230 245 297 306 328 320 325 338 316 282 256 247 243 169 140 133 148 130 123 110 89 63 11 17 351 1 28 16 3 102 125 123 104 106 105 100 101 98 92 87 80
188 195 193 191 191 186 179 175 181 179 177 173 177 184 181 173 176 172 185 184 181 184 180 184 181 178 172 177 170 159 165 174 189 195 204 199 208 206 204 210 213 217 213 202 255 261 236 260 296 326 331 322 314 317 292 260 243 203 137 146 166 144 149 148 116 85 22 16 356 353 30 14 356 341 120 115 122 116 113 108 99 97 92 85 80
199 198 195 195 198 189 182 184 182 184 179 172 183 179 186 187 183 185 189 185 194 189 186 182 189 186 185 178 174 169 171 178 184 193 183 203 205 203 197 211 212 213 199 227 212 246 268 260 292 300 317 299 300 292 303 277 245 124 148 144 170 153 155 154 122 96 47 17 357 354 19 15 359 350 337 131 127 117 109 104 106 97 85 77 77
203 195 195 202 197 191 190 189 187 186 180 178 188 188 188 189 193 192 196 187 200 197 193 194 197 188 192 188 184 179 183 180 188 189 177 201 199 200 199 203 207 191 189 223 207 202 241 282 292 284 295 287 282 272 327 300 300 192 148 141 147 188 151 163 127 110 68 25 358 344 7 21 9 353 353 8 128 126 119 122 119 108 95 88 81
187 202 200 200 194 193 197 193 190 184 180 186 187 192 191 200 196 196 200 197 196 196 200 200 202 201 197 193 192 188 180 187 190 184 196 200 194 194 212 198 207 199 189 226 180 205 206 226 241 249 257 266 262 292 300 286 259 302 164 134 150 131 147 176 114 112 87 40 357 332 352 21 15 9 360 349 140 134 129 127 108 105 102 93 83
199 206 200 192 194 199 197 195 193 185 186 192 188 194 197 198 197 200 207 202 198 201 204 207 205 202 198 200 199 198 190 193 193 191 195 200 204 203 217 194 223 205 191 214 211 207 211 244 255 251 247 238 269 307 318 246 332 171 286 134 149 160 172 174 148 140 123 108 349 323 6 8 21 21 4 348 180 142 135 128 119 99 84 82 84
212 203 193 185 198 197 198 198 195 188 192 196 195 199 196 197 198 202 201 198 201 201 207 209 208 200 195 198 202 200 201 201 204 201 199 203 203 204 213 218 224 209 194 206 207 193 221 265 282 155 168 135 39 291 305 108 175 242 174 148 149 169 163 176 159 153 152 150 157 264 29 36 32 24 14 11 66 110 122 98 91 93 86 80 76
201 195 180 200 198 196 197 195 196 196 197 199 197 198 200 201 201 202 201 199 203 203 208 208 206 200 193 195 199 203 204 208 199 205 197 202 203 205 213 222 225 216 193 168 199 194 216 222 247 203 244 239 249 246 268 282 297 252 205 181 172 171 167 189 174 166 151 153 164 141 111 67 50 44 22 28 48 82 96 101 105 95 88 79 73
194 191 197 199 193 195 189 198 193 200 197 200 199 203 201 201 200 201 198 199 206 212 211 209 207 205 195 205 202 204 207 205 202 194 200 195 199 211 215 226 215 202 192 189 193 195 197 220 211 220 251 265 270 254 241 251 249 233 194 180 172 149 165 173 147 140 147 143 127 140 105 90 65 59 44 45 45 52 72 108 106 95 80 71 70
203 202 200 189 195 198 191 195 192 200 199 200 202 204 201 201 201 201 200 198 204 210 211 210 206 205 209 211 209 212 210 207 203 199 197 197 199 209 218 216 213 186 204 188 176 196 203 219 224 197 232 254 254 266 242 243 240 247 191 183 174 166 165 160 167 160 157 127 139 143 109 94 78 72 66 60 61 57 64 77 86 78 72 68 66
205 201 197 193 198 197 194 197 193 198 200 200 203 204 199 201 202 202 203 201 206 209 207 200 204 210 211 216 209 208 206 204 203 199 202 198 206 213 219 209 197 197 203 199 194 207 192 210 224 206 200 228 222 243 257 200 234 234 191 177 214 162 174 179 170 170 148 156 165 164 124 108 86 77 77 77 71 68 67 69 69 65 61 66 69
208 207 203 196 200 194 195 200 200 198 199 199 201 201 201 201 202 203 201 204 211 210 204 196 208 211 209 217 210 205 203 198 195 196 204 206 202 207 213 206 193 198 208 197 213 198 201 195 228 217 200 204 220 225 241 241 233 253 229 189 173 113 101 257 223 161 172 170 177 180 182 133 96 93 85 84 84 80 72 63 62 56 53 63 68
206 206 206 206 203 199 195 201 200 196 200 199 200 202 202 203 200 197 200 209 212 212 203 206 214 209 211 212 208 206 199 196 195 193 203 208 207 207 209 209 189 197 202 207 216 209 204 204 211 231 223 214 212 216 212 169 150 71 8 347 31 51 47 76 74 69 347 201 175 172 114 130 101 79 92 90 94 94 86 76 72 61 47 60 66
205 203 206 205 206 203 199 200 201 194 193 196 191 199 196 197 197 194 212 213 211 210 210 215 210 212 213 208 207 203 197 196 196 197 204 206 208 209 211 202 196 190 201 208 218 209 209 204 217 212 222 249 247 212 135 130 83 74 38 20 47 87 74 75 88 97 58 53 2 114 170 122 121 97 85 90 99 101 97 94 83 74 55 52 64
207 204 204 206 206 203 195 204 196 190 188 190 193 192 197 199 205 206 210 203 206 208 214 214 210 212 212 210 203 201 198 195 199 197 205 206 210 207 204 211 197 196 203 213 211 211 206 199 204 196 205 217 237 187 226 135 138 183 25 11 7 64 109 114 94 52 37 39 53 169 169 153 157 141 104 88 100 105 109 102 96 83 72 63 47
212 206 205 208 206 205 205 205 191 193 196 195 194 198 199 197 194 204 204 206 204 206 218 213 212 213 211 206 201 199 199 198 200 199 204 203 207 206 207 211 198 206 211 214 211 208 199 195 180 192 195 199 219 189 187 130 314 207 224 311 342 342 97 116 128 120 133 118 119 148 201 192 180 162 98 96 98 110 113 116 107 96 89 85 80
213 207 208 204 205 207 210 202 197 195 200 198 195 202 198 201 198 200 198 212 216 215 217 213 207 210 209 202 199 198 197 205 203 200 204 207 208 205 212 208 203 202 208 217 212 213 200 199 189 196 198 214 243 169 179 198 183 112 116 55 306 320 324 91 149 193 175 158 136 160 191 213 187 157 140 118 119 119 118 121 116 115 110 102 96
218 211 206 208 209 211 209 203 202 200 201 201 201 201 198 197 203 204 206 206 205 216 225 224 209 214 217 201 204 196 199 208 204 203 207 206 205 209 209 205 211 201 205 209 206 214 201 202 195 206 180 194 202 220 195 203 151 137 271 210 220 118 304 267 243 277 185 164 165 186 160 196 169 140 128 143 145 136 127 125 126 131 129 129 128
213 211 204 207 208 209 207 203 202 202 202 199 199 195 185 187 190 188 148 222 278 176 194 228 215 214 219 212 211 200 204 207 206 207 204 209 207 209 208 210 209 207 202 211 210 211 204 200 193 196 196 205 209 215 211 197 211 213 159 98 14 290 218 232 79 279 159 176 210 170 175 177 178 174 152 139 127 142 140 131 136 129 139 144 136
216 213 207 210 209 211 206 203 203 204 204 199 193 185 190 188 179 192 204 207 220 207 214 214 206 211 217 214 208 202 205 209 208 209 208 207 210 209 209 209 213 209 202 212 215 202 205 200 198 196 204 208 206 188 215 206 211 218 212 176 182 195 184 234 127 276 315 230 38 178 184 179 164 181 159 147 150 151 154 152 156 155 155 152 142
220 211 209 215 213 211 205 203 203 205 202 198 186 187 193 196 198 202 206 207 215 223 217 212 210 212 206 208 208 199 205 208 212 210 210 209 212 209 210 213 215 212 206 207 212 210 208 206 193 195 206 200 187 209 209 203 187 244 225 207 123 147 146 138 225 72 324 320 254 180 203 164 175 180 185 176 164 155 172 167 166 161 158 157 133
217 203 213 216 212 210 203 204 206 205 200 193 188 191 195 197 201 209 211 215 215 223 204 212 209 198 200 207 203 206 204 207 212 212 211 211 208 212 211 215 215 215 201 208 214 214 209 206 197 202 203 197 197 209 214 187 186 213 197 217 210 137 159 166 170 202 205 229 258 265 296 200 175 202 194 178 176 176 167 174 166 161 157 164 169
215 208 211 211 211 211 208 206 207 205 201 192 192 195 199 197 201 205 214 221 220 225 204 203 205 195 208 202 205 208 207 209 212 212 213 212 206 210 211 216 216 215 204 214 216 211 208 202 196 198 204 207 204 211 203 203 200 211 168 219 203 204 192 163 99 91 184 210 252 188 199 7 194 245 212 186 177 181 178 173 172 164 164 171 183
220 217 219 215 213 208 207 205 208 203 199 196 194 196 199 198 202 208 213 218 214 218 197 208 203 190 213 207 207 207 208 210 212 214 214 210 210 208 212 215 216 214 208 215 215 212 211 208 206 205 205 208 205 203 209 208 203 204 195 191 194 206 211 231 189 143 336 233 240 212 197 176 200 238 184 187 179 177 167 166 168 170 172 178 188
222 214 220 218 216 211 210 210 211 204 197 198 193 197 197 198 207 208 212 216 208 206 208 218 200 197 214 213 207 210 204 212 206 215 213 210 212 210 212 217 215 213 213 215 216 213 211 211 210 207 208 208 205 204 213 219 202 205 207 199 202 195 198 205 204 198 200 219 233 254 240 203 205 212 234 182 176 174 172 175 178 182 180 183 186